• In Latvia
  • List of Countries
  • For 7 days
  • Water Temperature
  • Satellite Maps
  • Weather Map
  • Weather Widgets
  • user-avatar
    Login

    Hourly Weather Shkoder

    Today, 11 December, Monday

    Time Temperature Precipitation Wind Pressure Humidity
    00:00 +3°C° 0 mm 3 mps 741 mmHg 83%
    01:00 +3°C° 0 mm 4 mps 741 mmHg 81%
    02:00 +4°C° 0.1 mm 4 mps 741 mmHg 81%
    03:00 +4°C° 0.1 mm 3 mps 741 mmHg 81%
    04:00 +4°C° 0.1 mm 3 mps 741 mmHg 81%
    05:00 +5°C° 0.3 mm 3 mps 741 mmHg 82%
    06:00 +5°C° 0.3 mm 3 mps 741 mmHg 84%
    07:00 +5°C° 0 mm 4 mps 740 mmHg 86%
    08:00 +6°C° 0.2 mm 4 mps 740 mmHg 86%
    09:00 +6°C° 0.2 mm 4 mps 740 mmHg 86%
    10:00 +7°C° 0.2 mm 4 mps 740 mmHg 86%
    11:00 +7°C° 0.2 mm 4 mps 740 mmHg 86%
    12:00 +8°C° 0.2 mm 4 mps 740 mmHg 86%
    13:00 +8°C° 0.2 mm 5 mps 740 mmHg 86%
    14:00 +8°C° 0.2 mm 5 mps 740 mmHg 87%
    15:00 +8°C° 0.2 mm 5 mps 740 mmHg 89%
    16:00 +8°C° 0.2 mm 5 mps 740 mmHg 90%
    17:00 +8°C° 0.3 mm 5 mps 740 mmHg 90%
    18:00 +8°C° 0.3 mm 5 mps 740 mmHg 90%
    19:00 +8°C° 0.3 mm 5 mps 740 mmHg 90%
    20:00 +8°C° 0.3 mm 4 mps 741 mmHg 90%
    21:00 +8°C° 0.3 mm 4 mps 741 mmHg 90%
    22:00 +8°C° 0.3 mm 4 mps 741 mmHg 89%
    23:00 +8°C° 0.4 mm 4 mps 741 mmHg 89%

    Tomorrow, 12 December, Tuesday

    Time Temperature Precipitation Wind Pressure Humidity
    00:00 +8°C° 0.4 mm 4 mps 741 mmHg 90%
    01:00 +8°C° 0.4 mm 4 mps 741 mmHg 90%
    02:00 +8°C° 0.3 mm 4 mps 741 mmHg 90%
    03:00 +10°C° 0.3 mm 4 mps 741 mmHg 90%
    04:00 +10°C° 0.3 mm 4 mps 741 mmHg 90%
    05:00 +10°C° 0.1 mm 4 mps 742 mmHg 90%
    06:00 +10°C° 0.1 mm 3 mps 742 mmHg 90%
    07:00 +10°C° 0.1 mm 3 mps 742 mmHg 90%
    08:00 +10°C° 0.1 mm 3 mps 742 mmHg 90%
    09:00 +11°C° 0.1 mm 3 mps 742 mmHg 89%
    10:00 +11°C° 0.1 mm 3 mps 743 mmHg 89%
    11:00 +12°C° 0.1 mm 3 mps 743 mmHg 88%
    12:00 +12°C° 0.1 mm 3 mps 742 mmHg 87%
    13:00 +13°C° 0.1 mm 4 mps 742 mmHg 86%
    14:00 +12°C° 0.1 mm 3 mps 742 mmHg 88%
    15:00 +12°C° 0.1 mm 3 mps 743 mmHg 90%
    16:00 +11°C° 0.1 mm 3 mps 743 mmHg 91%
    17:00 +11°C° 0.2 mm 3 mps 743 mmHg 92%
    18:00 +11°C° 0.2 mm 3 mps 743 mmHg 92%
    19:00 +11°C° 0.2 mm 3 mps 743 mmHg 93%
    20:00 +11°C° 0.2 mm 3 mps 744 mmHg 93%
    21:00 +11°C° 0.2 mm 3 mps 744 mmHg 93%
    22:00 +11°C° 0.2 mm 3 mps 744 mmHg 93%
    23:00 +11°C° 0.2 mm 3 mps 744 mmHg 92%

    Day after tomorrow, 13 December, Wednesday

    Time Temperature Precipitation Wind Pressure Humidity
    00:00 +11°C° 0.2 mm 3 mps 744 mmHg 92%
    01:00 +11°C° 0.2 mm 3 mps 744 mmHg 92%
    02:00 +11°C° 0.2 mm 3 mps 743 mmHg 92%
    03:00 +10°C° 0.2 mm 3 mps 743 mmHg 92%
    04:00 +10°C° 0.2 mm 3 mps 743 mmHg 92%
    05:00 +10°C° 0.2 mm 3 mps 743 mmHg 92%
    06:00 +10°C° 0.2 mm 3 mps 743 mmHg 91%
    07:00 +10°C° 0.2 mm 3 mps 743 mmHg 91%
    08:00 +11°C° 0.2 mm 3 mps 743 mmHg 89%
    09:00 +11°C° 0.2 mm 4 mps 743 mmHg 87%
    10:00 +12°C° 0.2 mm 4 mps 743 mmHg 85%
    11:00 +12°C° 0.4 mm 4 mps 743 mmHg 85%
    12:00 +12°C° 0.4 mm 4 mps 742 mmHg 85%
    13:00 +12°C° 0.4 mm 4 mps 742 mmHg 85%
    14:00 +12°C° 1 mm 4 mps 741 mmHg 88%
    15:00 +12°C° 1 mm 4 mps 741 mmHg 90%
    16:00 +11°C° 1 mm 4 mps 741 mmHg 93%
    17:00 +11°C° 1.5 mm 4 mps 741 mmHg 94%
    18:00 +11°C° 1.5 mm 3 mps 741 mmHg 94%
    19:00 +11°C° 1.5 mm 3 mps 741 mmHg 95%
    20:00 +11°C° 2.4 mm 3 mps 741 mmHg 95%
    21:00 +10°C° 2.4 mm 3 mps 741 mmHg 96%
    22:00 +10°C° 2.4 mm 3 mps 742 mmHg 96%
    23:00 +10°C° 1.4 mm 3 mps 741 mmHg 96%

    14 December, Thursday

    Time Temperature Precipitation Wind Pressure Humidity
    00:00 +10°C° 1.4 mm 3 mps 741 mmHg 96%
    01:00 +10°C° 1.4 mm 3 mps 741 mmHg 96%
    02:00 +10°C° 0.2 mm 2 mps 741 mmHg 96%
    03:00 +9°C° 0.2 mm 2 mps 741 mmHg 96%
    04:00 +9°C° 0.2 mm 2 mps 741 mmHg 95%
    05:00 +9°C° 0.1 mm 2 mps 741 mmHg 95%
    06:00 +8°C° 0.1 mm 2 mps 742 mmHg 94%
    07:00 +8°C° 0.1 mm 2 mps 742 mmHg 94%
    08:00 +8°C° 0.1 mm 2 mps 742 mmHg 90%
    09:00 +9°C° 0.1 mm 2 mps 742 mmHg 87%
    10:00 +10°C° 0.1 mm 2 mps 742 mmHg 83%
    11:00 +10°C° 0.1 mm 2 mps 741 mmHg 82%
    12:00 +10°C° 0.1 mm 3 mps 741 mmHg 82%
    13:00 +10°C° 0.1 mm 3 mps 740 mmHg 81%
    14:00 +10°C° 0.1 mm 3 mps 740 mmHg 83%
    15:00 +10°C° 0.1 mm 3 mps 740 mmHg 86%
    16:00 +9°C° 0.1 mm 3 mps 740 mmHg 88%
    17:00 +9°C° 0 mm 3 mps 740 mmHg 88%
    18:00 +8°C° 0 mm 3 mps 740 mmHg 89%
    19:00 +8°C° 0 mm 3 mps 740 mmHg 89%
    20:00 +8°C° 0.1 mm 3 mps 740 mmHg 89%
    21:00 +8°C° 0.1 mm 3 mps 740 mmHg 88%
    22:00 +8°C° 0.1 mm 3 mps 740 mmHg 88%
    23:00 +8°C° 0 mm 3 mps 740 mmHg 87%

    15 December, Friday

    Time Temperature Precipitation Wind Pressure Humidity
    00:00 +8°C° 0 mm 3 mps 740 mmHg 86%
    01:00 +8°C° 0 mm 3 mps 739 mmHg 85%
    02:00 +8°C° 0 mm 3 mps 739 mmHg 85%
    03:00 +8°C° 0 mm 3 mps 739 mmHg 84%
    04:00 +8°C° 0 mm 3 mps 738 mmHg 84%
    05:00 +8°C° 0 mm 3 mps 738 mmHg 84%
    06:00 +8°C° 0 mm 3 mps 738 mmHg 85%
    07:00 +8°C° 0 mm 3 mps 738 mmHg 85%
    08:00 +8°C° 0.3 mm 3 mps 738 mmHg 84%
    09:00 +8°C° 0.3 mm 4 mps 738 mmHg 82%
    10:00 +8°C° 0.3 mm 4 mps 737 mmHg 81%
    11:00 +8°C° 0.7 mm 4 mps 736 mmHg 82%
    12:00 +9°C° 0.7 mm 5 mps 736 mmHg 84%
    13:00 +9°C° 0.7 mm 6 mps 735 mmHg 85%
    14:00 +9°C° 1.8 mm 6 mps 734 mmHg 88%
    15:00 +10°C° 1.8 mm 7 mps 734 mmHg 90%
    16:00 +10°C° 1.8 mm 8 mps 734 mmHg 92%
    17:00 +10°C° 2.3 mm 8 mps 734 mmHg 93%
    18:00 +10°C° 2.3 mm 8 mps 733 mmHg 93%
    19:00 +10°C° 2.3 mm 8 mps 733 mmHg 93%
    20:00 +10°C° 2.9 mm 8 mps 733 mmHg 93%
    21:00 +10°C° 2.9 mm 8 mps 733 mmHg 93%
    22:00 +10°C° 2.9 mm 8 mps 733 mmHg 93%
    23:00 +10°C° 3.5 mm 8 mps 733 mmHg 93%

    16 December, Saturday

    Time Temperature Precipitation Wind Pressure Humidity
    00:00 +11°C° 3.5 mm 8 mps 733 mmHg 93%
    01:00 +11°C° 3.5 mm 8 mps 733 mmHg 93%
    02:00 +11°C° 2.5 mm 8 mps 733 mmHg 93%
    03:00 +11°C° 2.5 mm 8 mps 733 mmHg 93%
    04:00 +11°C° 2.5 mm 8 mps 733 mmHg 93%
    05:00 +11°C° 2.1 mm 7 mps 734 mmHg 92%
    06:00 +10°C° 2.1 mm 6 mps 734 mmHg 92%
    07:00 +10°C° 2.1 mm 6 mps 734 mmHg 92%
    08:00 +10°C° 1 mm 5 mps 735 mmHg 90%
    09:00 +11°C° 1 mm 4 mps 735 mmHg 89%
    10:00 +11°C° 1 mm 3 mps 735 mmHg 87%
    11:00 +11°C° 0.8 mm 3 mps 735 mmHg 87%
    12:00 +11°C° 0.8 mm 3 mps 735 mmHg 86%
    13:00 +12°C° 0.8 mm 2 mps 735 mmHg 86%
    14:00 +12°C° 0.4 mm 2 mps 735 mmHg 87%
    15:00 +10°C° 0.4 mm 2 mps 736 mmHg 88%
    16:00 +10°C° 0.4 mm 2 mps 736 mmHg 89%
    17:00 +9°C° 0.3 mm 2 mps 736 mmHg 89%
    18:00 +9°C° 0.3 mm 2 mps 736 mmHg 89%
    19:00 +9°C° 0.3 mm 2 mps 737 mmHg 88%
    20:00 +10°C° 0.5 mm 1 mps 737 mmHg 89%
    21:00 +9°C° 0.5 mm 1 mps 737 mmHg 90%
    22:00 +9°C° 0.5 mm 1 mps 737 mmHg 90%
    23:00 +9°C° 0.6 mm 1 mps 737 mmHg 90%
    Show more